Weather History for KSDB - December, 2013

Change the Weather History Date:

Saturday, December 28, 2013

  Actual Average Record
Temperature  
Mean Temperature 60 °F 42 °F  
Max Temperature 69 °F 48 °F 69 °F (2013)
Min Temperature 51 °F 37 °F 21 °F (1971)
Degree Days  
Heating Degree Days 5 23  
Month to date heating degree days 491 632  
Since 1 July heating degree days 1045 1411  
Cooling Degree Days 0 0  
Month to date cooling degree days 0 0  
Year to date cooling degree days 1565 998  
Growing Degree Days 10 (Base 50)    
Moisture  
Dew Point -5 °F    
Average Humidity 9    
Maximum Humidity 13    
Minimum Humidity 4    
Precipitation  
Precipitation 0.00 in 0.10 in 2.95 in (2004)
Month to date precipitation 0.08 1.94  
Year to date precipitation 3.69 12.02  
Since 1 July precipitation 0.78 3.54  
Sea Level Pressure  
Sea Level Pressure 29.99 in    
Wind  
Wind Speed 11 mph (North)    
Max Wind Speed 23 mph    
Max Gust Speed 28 mph    
Visibility 10 miles    
Events      
T = Trace of Precipitation, MM = Missing Value Source: NWS Daily Summary

Daily Weather History Graph

Daily Weather History Graph

Search for Another Location

Airport or City:

Trip Planner

Search our weather history database for the weather conditions in past years. The results will help you decide how hot, cold, wet, or windy it might be!

Date:

Astronomy

Dec. 28, 2013 Rise Set
Actual Time 7:01 AM PST 4:52 PM PST
Civil Twilight 6:33 AM PST 5:20 PM PST
Nautical Twilight 6:01 AM PST 5:51 PM PST
Astronomical Twilight 5:31 AM PST 6:22 PM PST
Moon 2:48 AM PST (12/28) 1:42 PM PST (12/28)
Length of Visible Light 10h 46m
Length of Day
9h 50m
Waning Crescent, 18% of the Moon is Illuminated
Dec 28
Waning Crescent
Jan 1
New
Jan 7
First Quarter
Jan 15
Full
Jan 23
Last Quarter

Hourly Weather History & Observations

Time (PST) Temp. Dew Point Humidity Pressure Visibility Wind Dir Wind Speed Gust Speed Precip Events Conditions
12:48 AM 59.0 °F -8.0 °F 6% 30.04 in 10.0 mi NNW 10.4 mph - N/A   Clear
1:48 AM 59.0 °F -11.9 °F 5% 30.02 in 10.0 mi NNW 15.0 mph - N/A   Clear
2:48 AM 59.0 °F -11.0 °F 6% 30.02 in 10.0 mi NNW 6.9 mph - N/A   Clear
3:48 AM 61.0 °F -11.0 °F 5% 30.00 in 10.0 mi NW 11.5 mph - N/A   Clear
4:48 AM 59.0 °F -9.9 °F 6% 30.00 in 10.0 mi NNW 5.8 mph - N/A   Clear
5:48 AM 57.0 °F -11.0 °F 6% 30.01 in 10.0 mi NNW 13.8 mph - N/A   Clear
6:48 AM 55.0 °F -2.9 °F 9% 30.01 in 10.0 mi NNW 12.7 mph - N/A   Clear
7:48 AM 55.0 °F -2.0 °F 10% 30.01 in 10.0 mi NNW 17.3 mph - N/A   Clear
8:48 AM 57.0 °F -2.9 °F 9% 30.02 in 10.0 mi NNW 18.4 mph - N/A   Clear
9:48 AM 60.1 °F -4.0 °F 7% 30.01 in 10.0 mi NNW 21.9 mph - N/A   Clear
10:48 AM 64.0 °F -6.0 °F 6% 30.00 in 10.0 mi North 13.8 mph - N/A   Clear
11:48 AM 66.0 °F -8.0 °F 5% 29.96 in 10.0 mi North 8.1 mph - N/A   Clear
12:48 PM 68.0 °F -9.9 °F 4% 29.94 in 10.0 mi NNE 9.2 mph 17.3 mph N/A   Clear
1:48 PM 64.9 °F -5.1 °F 6% 29.92 in 10.0 mi North 8.1 mph 19.6 mph N/A   Clear
2:48 PM 64.0 °F -8.0 °F 5% 29.92 in 10.0 mi North 5.8 mph - N/A   Clear
3:48 PM 61.0 °F -6.0 °F 7% 29.93 in 10.0 mi NE 8.1 mph - N/A   Clear
4:48 PM 57.0 °F -6.0 °F 8% 29.94 in 10.0 mi NNE 3.5 mph - N/A   Clear
5:48 PM 55.9 °F -6.0 °F 8% 29.96 in 10.0 mi East 11.5 mph - N/A   Clear
6:48 PM 54.0 °F -0.9 °F 11% 29.98 in 10.0 mi ENE 11.5 mph - N/A   Clear
7:48 PM 52.0 °F 1.0 °F 12% 29.99 in 10.0 mi NE 6.9 mph - N/A   Clear
8:48 PM 52.0 °F 1.0 °F 12% 30.00 in 10.0 mi ENE 9.2 mph - N/A   Clear
9:48 PM 53.1 °F -0.0 °F 11% 30.00 in 10.0 mi ENE 9.2 mph - N/A   Clear
10:48 PM 52.0 °F -0.0 °F 12% 30.01 in 10.0 mi NE 6.9 mph - N/A   Clear
11:48 PM 51.1 °F -0.0 °F 12% 30.01 in 10.0 mi ENE 10.4 mph - N/A   Clear